Location: Darlington Observatory
(36.4817°N, 105.8156°W)
Time: 06:31:36
(UTC-06:00)

NOSS 3-3 (A) - Visible Passes

Search period start: 30 May 2016 00:00
Search period end: 09 June 2016 00:00
Orbit: 932 x 1281 km, 63.4° (Epoch: 26 May)

Date Brightness Start Highest point End Pass type
(mag) Time Alt. Az. Time Alt. Az. Time Alt. Az.
30 May 4.3 00:47:18 10° NW 00:54:50 75° WSW 00:54:56 75° SW visible
30 May 6.4 02:41:48 10° W 02:42:21 11° W 02:42:21 11° W visible
30 May 6.3 22:13:00 10° N 22:17:55 19° NE 22:23:02 10° E visible
31 May 4.5 00:02:36 10° NNW 00:10:07 73° ENE 00:11:22 63° ESE visible
31 May 5.9 01:54:55 10° WNW 01:58:47 21° W 01:58:47 21° W visible
31 May 6.5 21:29:15 10° N 21:32:28 13° NNE 21:35:44 10° ENE visible
31 May 5.0 23:18:04 10° NNW 23:25:17 49° NE 23:27:51 37° E visible
01 Jun 5.3 01:09:20 10° NW 01:15:17 36° W 01:15:17 36° W visible
01 Jun 5.5 22:33:41 10° NNW 22:40:18 33° NE 22:44:23 21° E visible
02 Jun 4.6 00:24:13 10° NW 00:31:37 58° WSW 00:31:49 58° WSW visible
02 Jun 6.0 21:49:27 10° N 21:55:08 23° NE 22:00:58 10° E visible
02 Jun 4.4 23:39:24 10° NNW 23:46:59 88° WSW 23:48:24 64° SSE visible
03 Jun 6.2 01:32:48 10° WNW 01:35:49 15° W 01:35:49 15° W visible
03 Jun 6.3 21:05:27 10° N 21:09:48 16° NE 21:14:16 10° ENE visible
03 Jun 4.7 22:54:47 10° NNW 23:02:14 63° NE 23:05:01 41° ESE visible
04 Jun 5.6 00:46:38 10° NW 00:52:27 27° WSW 00:52:27 27° WSW visible
04 Jun 5.2 22:10:19 10° NNW 22:17:20 42° NE 22:21:42 23° ESE visible
05 Jun 5.0 00:01:17 10° NW 00:08:22 44° WSW 00:09:08 43° SW visible
05 Jun 5.7 21:25:59 10° NNW 21:32:16 29° NE 21:38:25 12° E visible
05 Jun 4.5 23:16:18 10° NW 23:23:48 69° WSW 23:25:51 51° S visible
06 Jun 6.5 01:12:01 10° W 01:13:18 11° W 01:13:18 11° W visible
06 Jun 6.1 20:41:49 10° N 20:47:03 20° NE 20:52:29 10° E visible
06 Jun 4.5 22:31:34 10° NNW 22:39:08 80° ENE 22:42:37 37° SE visible
07 Jun 6.0 00:24:13 10° WNW 00:29:27 20° WSW 00:30:04 20° WSW visible
07 Jun 4.8 21:47:00 10° NNW 21:54:18 54° NE 21:59:26 22° ESE visible
07 Jun 5.5 23:38:27 10° NW 23:45:04 33° WSW 23:46:53 30° SW visible
08 Jun 5.4 21:02:35 10° NNW 21:09:21 36° NE 21:16:18 11° ESE visible
08 Jun 4.9 22:53:16 10° NW 23:00:34 52° WSW 23:03:45 34° S visible
